Temp
26 22 21 22 23 25 26 26 25 27 27 26 25 25 25 29 28 27 27 27 27 27 26 25 24 24 23 22 21 20 20 19 19 17 17 17 17 17 17 17 16 15 15 15
23 22 24 26 27 26 26 25 25 26 29 26 24 25 26 27 26 28 28 28 28 27 26 25 25 23 23 22 21 20 19 19 18 17 17 16 16 16 15 15 15 15 15 15
22 25 28 28 27 27 26 26 26 26 27 29 27 26 27 27 28 28 28 28 28 27 27 26 25 24 23 22 20 20 19 19 18 17 17 16 15 15 16 16 15 15 14 13
24 27 28 27 28 27 24 27 27 27 25 23 26 20 24 24 25 25 27 28 29 28 27 26 25 24 22 21 20 20 18 18 17 17 16 16 15 14 14 14 13 13 13 11
24 26 26 27 28 27 25 28 27 25 22 22 23 21 22 23 24 24 25 28 29 29 28 27 24 21 21 20 19 18 16 16 16 15 14 14 14 13 12 12 11 11 9 8
25 28 27 27 28 27 28 27 24 23 21 19 22 22 23 23 25 23 25 28 29 29 26 24 21 21 18 17 17 16 16 14 14 13 13 12 12 12 11 11 9 8 7 7
24 25 27 29 27 25 26 21 18 18 19 18 23 22 23 25 25 25 24 27 25 25 23 20 18 18 16 15 14 13 13 12 12 12 12 11 11 10 9 8 7 6 5 3
21 21 25 27 25 24 24 21 16 20 19 20 24 22 23 24 26 27 27 26 25 22 20 19 17 16 15 14 14 13 13 12 13 12 11 11 10 9 7 6 5 3 2 2
22 23 27 28 27 25 24 22 22 20 21 19 21 23 24 22 23 26 27 24 20 19 18 17 16 16 15 14 14 12 12 12 12 11 11 10 9 7 6 3 2 2 2 2
22 21 26 27 27 26 24 24 21 19 20 19 21 21 21 20 20 22 25 24 19 18 17 16 15 14 13 12 12 12 13 12 11 10 9 8 7 6 3 3 3 2 2 2
23 21 23 24 25 24 23 22 22 19 17 16 16 18 19 17 17 18 21 25 19 18 17 16 15 14 13 12 12 12 12 11 10 8 7 6 5 3 3 3 3 2 3 3
20 20 20 22 24 26 23 19 17 15 16 16 16 16 16 17 20 22 21 20 19 18 16 15 14 12 12 11 11 11 10 9 8 7 6 4 3 3 3 3 3 3 3 3
20 18 19 20 21 22 21 21 19 18 15 16 13 14 17 16 16 18 22 21 19 16 15 14 13 12 12 12 11 10 9 8 7 5 4 3 3 3 3 3 3 3 3 3
22 20 19 16 20 21 21 20 19 16 15 16 15 16 17 14 13 16 18 19 17 15 14 12 11 11 11 10 10 9 8 7 5 4 3 3 3 3 3 3 2 2 3 3
18 18 20 20 21 22 22 21 19 17 17 16 19 18 16 15 13 14 17 15 15 14 13 11 11 11 10 9 8 7 6 5 3 2 3 3 3 3 3 3 3 3 3 3
18 17 20 19 21 21 21 22 22 19 19 17 18 16 16 14 15 16 14 15 14 13 11 11 10 10 9 8 7 6 4 3 3 3 3 3 3 3 3 3 3 3 3 3
18 17 17 17 19 19 18 20 21 20 19 19 17 17 18 15 15 13 15 15 14 11 11 11 10 9 8 6 6 5 3 3 3 3 3 3 3 3 3 3 3 3 3 3
18 17 16 15 17 15 18 21 21 21 21 18 19 18 17 15 16 16 15 14 11 11 11 10 9 8 7 5 4 4 3 3 3 3 3 3 3 3 3 3 3 3 4 4
17 16 15 15 15 17 19 19 18 17 19 17 18 18 15 13 13 13 14 13 11 12 10 9 8 7 5 4 4 4 3 3 4 4 3 3 3 3 3 3 3 3 3 4
17 16 14 16 16 15 18 19 19 20 15 14 15 13 14 16 13 10 11 12 10 10 10 9 7 5 5 4 4 4 4 4 4 3 4 4 4 4 3 3 3 3 3 4
16 15 15 14 15 17 18 19 20 17 14 15 14 14 15 11 10 9 9 9 9 11 9 6 5 5 5 5 4 4 4 4 4 4 4 4 4 4 4 4 3 3 3 3
15 14 14 14 15 14 18 18 16 14 14 14 15 13 12 11 11 9 8 9 8 8 6 6 5 4 5 5 4 4 4 4 4 4 4 5 5 4 4 4 4 3 3 3
15 15 13 15 13 17 18 16 16 15 14 12 12 12 11 10 9 8 8 8 7 7 6 6 5 5 5 4 4 4 4 4 4 4 4 5 5 5 4 4 4 4 3 3
17 15 13 14 16 16 17 17 16 14 13 13 12 12 11 10 8 8 8 8 8 7 7 6 5 5 5 5 4 4 4 3 4 4 5 5 5 5 5 5 5 4 3 3
11 14 12 11 16 17 16 16 15 14 12 12 12 12 11 9 9 9 8 8 8 7 7 6 6 6 5 5 4 4 4 4 4 4 5 5 5 5 5 5 5 5 4 3
9 10 11 11 12 13 15 15 15 14 13 12 11 10 10 10 10 9 9 9 8 7 7 6 6 6 5 5 4 4 4 4 4 4 5 5 5 5 5 5 5 5 4 3
Height
1509 1518 1525 1515 1508 1505 1504 1508 1510 1496 1485 1491 1499 1502 1500 1497 1501 1504 1507 1510 1513 1517 1519 1523 1527 1529 1533 1537 1540 1542 1545 1548 1549 1548 1548 1548 1546 1545 1545 1541 1539 1536 1532 1529
1512 1519 1503 1500 1499 1500 1500 1506 1507 1492 1481 1488 1497 1501 1494 1494 1494 1496 1500 1503 1506 1510 1515 1517 1521 1523 1526 1528 1533 1538 1541 1541 1542 1543 1544 1542 1541 1541 1538 1537 1535 1532 1528 1523
1514 1500 1496 1497 1497 1500 1498 1502 1502 1502 1487 1485 1493 1503 1495 1490 1490 1490 1492 1495 1500 1503 1507 1511 1515 1518 1523 1528 1534 1536 1537 1538 1538 1539 1540 1539 1538 1537 1535 1532 1529 1525 1520 1514
1502 1492 1492 1492 1495 1495 1509 1492 1494 1496 1502 1523 1495 1538 1502 1492 1490 1486 1486 1488 1492 1497 1502 1505 1509 1515 1521 1527 1530 1533 1534 1536 1537 1536 1536 1535 1534 1532 1529 1525 1521 1517 1512 1508
1502 1494 1492 1494 1492 1492 1502 1491 1495 1498 1509 1511 1510 1527 1513 1494 1494 1486 1477 1479 1486 1491 1495 1499 1506 1513 1519 1524 1528 1531 1533 1534 1535 1533 1534 1532 1530 1528 1523 1519 1514 1509 1506 1502
1492 1485 1487 1486 1484 1488 1488 1493 1500 1504 1514 1543 1518 1524 1516 1505 1494 1482 1471 1474 1484 1488 1492 1496 1505 1509 1517 1523 1527 1530 1530 1531 1531 1531 1531 1528 1525 1521 1516 1512 1507 1503 1498 1493
1495 1489 1482 1481 1488 1488 1490 1512 1546 1550 1547 1550 1510 1522 1509 1489 1485 1483 1479 1485 1489 1490 1495 1502 1509 1518 1519 1523 1527 1529 1529 1531 1530 1530 1527 1523 1520 1517 1512 1507 1502 1496 1491 1487
1512 1515 1483 1476 1485 1497 1496 1507 1549 1552 1553 1539 1505 1523 1510 1488 1485 1486 1489 1489 1491 1497 1504 1510 1513 1516 1520 1524 1526 1526 1528 1528 1528 1526 1524 1520 1517 1512 1508 1503 1498 1494 1489 1484
1504 1498 1474 1469 1472 1483 1494 1508 1499 1523 1520 1535 1521 1506 1495 1491 1490 1490 1493 1493 1497 1502 1507 1513 1519 1522 1523 1524 1524 1525 1525 1526 1525 1523 1520 1516 1512 1508 1504 1500 1496 1492 1487 1482
1487 1506 1478 1470 1470 1478 1488 1488 1517 1519 1540 1544 1523 1520 1517 1505 1502 1496 1495 1497 1501 1507 1510 1514 1519 1522 1524 1524 1524 1525 1525 1523 1522 1520 1516 1512 1509 1505 1501 1498 1494 1490 1486 1480
1476 1489 1490 1480 1482 1489 1492 1500 1498 1509 1523 1548 1552 1532 1512 1510 1506 1504 1501 1500 1504 1505 1509 1514 1518 1520 1521 1522 1524 1524 1525 1523 1520 1516 1512 1509 1506 1504 1501 1498 1494 1490 1484 1478
1481 1485 1502 1492 1477 1477 1488 1506 1511 1536 1538 1533 1533 1538 1521 1517 1510 1504 1507 1501 1512 1508 1510 1514 1516 1518 1520 1523 1522 1522 1522 1519 1517 1514 1510 1508 1507 1505 1502 1498 1494 1489 1483 1477
1481 1496 1508 1503 1492 1485 1495 1501 1509 1514 1526 1535 1558 1543 1515 1515 1518 1516 1503 1502 1508 1510 1513 1514 1515 1516 1518 1521 1522 1521 1520 1518 1515 1512 1510 1509 1508 1505 1502 1497 1494 1489 1483 1477
1479 1489 1503 1525 1505 1495 1499 1499 1503 1520 1539 1536 1535 1524 1514 1519 1523 1521 1524 1500 1502 1509 1511 1514 1515 1518 1520 1523 1522 1521 1519 1516 1514 1512 1511 1510 1508 1505 1501 1498 1494 1489 1484 1478
1482 1498 1494 1494 1490 1487 1490 1498 1500 1512 1512 1524 1507 1505 1510 1513 1516 1518 1523 1525 1512 1509 1514 1516 1517 1519 1522 1523 1521 1519 1517 1516 1514 1514 1512 1511 1509 1505 1501 1498 1494 1490 1486 1480
1482 1499 1492 1498 1490 1489 1493 1488 1489 1498 1499 1506 1502 1507 1501 1508 1507 1507 1517 1529 1515 1514 1514 1517 1518 1522 1523 1523 1520 1518 1516 1516 1516 1515 1513 1512 1509 1505 1502 1498 1494 1490 1486 1480
1487 1495 1502 1509 1493 1495 1505 1493 1489 1487 1491 1493 1503 1496 1493 1497 1497 1500 1497 1525 1510 1511 1513 1517 1520 1523 1524 1523 1519 1517 1517 1517 1516 1515 1514 1512 1509 1506 1502 1497 1493 1489 1484 1479
1489 1494 1500 1510 1502 1523 1491 1479 1479 1482 1480 1484 1488 1490 1490 1493 1494 1499 1507 1510 1514 1511 1513 1519 1521 1524 1525 1524 1520 1519 1519 1518 1517 1515 1514 1512 1509 1505 1501 1497 1492 1487 1483 1479
1484 1493 1505 1514 1514 1499 1487 1482 1486 1490 1490 1485 1486 1486 1492 1496 1495 1503 1507 1508 1512 1514 1518 1519 1523 1526 1526 1524 1521 1521 1521 1520 1517 1514 1514 1511 1508 1505 1501 1496 1491 1485 1482 1478
1480 1485 1500 1502 1511 1516 1488 1482 1481 1482 1503 1494 1491 1492 1490 1496 1507 1513 1508 1509 1514 1516 1517 1522 1524 1526 1526 1524 1524 1524 1522 1520 1516 1515 1514 1511 1508 1506 1502 1498 1491 1485 1482 1479
1488 1490 1497 1502 1504 1494 1483 1482 1481 1498 1508 1494 1493 1494 1492 1497 1501 1520 1516 1513 1515 1514 1520 1526 1524 1525 1526 1526 1525 1524 1522 1520 1518 1516 1514 1511 1508 1506 1503 1500 1494 1488 1482 1478
1488 1499 1499 1498 1501 1509 1482 1483 1491 1494 1494 1494 1491 1494 1496 1499 1503 1507 1519 1516 1516 1519 1523 1526 1525 1525 1524 1525 1525 1524 1522 1520 1518 1516 1513 1511 1509 1506 1504 1500 1496 1491 1485 1479
1487 1482 1491 1487 1492 1482 1483 1486 1490 1490 1492 1494 1494 1495 1495 1501 1506 1515 1525 1523 1521 1523 1523 1525 1526 1526 1525 1525 1525 1524 1523 1521 1518 1516 1514 1512 1510 1507 1504 1501 1497 1492 1487 1482
1469 1469 1484 1481 1478 1480 1483 1487 1489 1490 1492 1496 1498 1500 1501 1502 1510 1506 1524 1526 1524 1524 1525 1527 1526 1528 1528 1526 1525 1524 1523 1521 1519 1517 1515 1512 1510 1508 1505 1501 1497 1493 1489 1484
1486 1477 1487 1488 1481 1484 1486 1487 1490 1492 1493 1497 1501 1503 1503 1504 1509 1510 1518 1521 1523 1527 1528 1528 1528 1529 1530 1527 1525 1524 1523 1521 1519 1517 1516 1513 1510 1508 1505 1502 1498 1494 1490 1487
1486 1486 1491 1487 1484 1484 1488 1489 1490 1492 1495 1500 1499 1505 1507 1507 1506 1512 1518 1522 1524 1528 1527 1528 1530 1530 1530 1526 1525 1524 1524 1523 1520 1518 1516 1514 1511 1509 1506 1503 1499 1495 1491 1488
Wind_Speed
14 3 7 12 11 12 11 7 10 9 10 12 10 8 10 19 28 25 27 29 30 31 28 30 30 27 24 22 21 21 19 15 15 16 14 13 15 17 18 21 17 19 21 25
5 9 13 13 13 11 10 10 9 9 7 8 10 9 9 7 19 33 33 33 33 34 33 33 34 31 30 28 24 19 12 15 15 17 18 18 21 17 17 18 19 24 30 35
9 13 13 16 11 9 9 3 6 6 9 2 6 2 4 8 11 30 36 36 33 34 38 37 39 37 32 26 20 17 17 18 18 19 19 17 15 16 20 23 28 32 36 37
9 17 15 7 3 6 6 8 6 10 7 2 3 5 6 7 11 8 28 37 34 33 33 39 39 38 32 25 22 21 19 16 14 14 15 16 17 20 24 29 33 35 37 35
10 10 8 5 2 5 8 1 5 6 6 6 9 3 6 8 6 9 17 37 33 26 31 35 36 34 29 26 24 18 9 4 7 11 15 17 20 24 29 32 34 36 34 34
8 23 4 4 6 8 8 3 8 6 4 4 6 4 8 7 5 7 4 31 27 21 19 26 36 35 30 21 12 6 1 6 12 16 18 20 25 29 32 34 36 37 40 36
8 14 9 5 2 8 4 6 3 4 3 5 4 4 13 2 5 5 13 24 32 28 33 38 35 27 24 20 15 9 1 3 9 15 19 23 27 29 32 34 36 38 34 31
8 7 12 8 9 9 5 8 6 5 2 5 5 3 5 6 15 15 14 23 25 35 35 36 36 35 30 24 14 6 1 9 15 18 22 26 28 30 31 33 30 28 29 30
4 8 7 10 7 10 5 2 10 6 4 3 4 7 2 7 7 8 6 28 35 44 43 37 30 23 18 11 5 1 8 13 16 22 26 28 29 30 28 26 25 26 27 28
9 6 8 11 12 7 7 4 2 1 2 5 2 5 2 8 10 9 3 19 34 40 39 34 28 23 18 11 7 8 13 16 21 24 26 27 26 24 23 22 24 25 27 29
11 6 6 6 2 7 1 3 3 4 5 5 2 4 3 3 5 8 26 10 35 38 33 29 25 19 11 5 7 11 14 19 22 24 24 23 22 21 21 23 23 26 28 30
0 3 6 9 8 3 8 3 5 5 6 1 2 3 7 10 8 6 3 33 25 33 32 29 24 16 9 7 11 14 18 22 23 21 20 19 19 20 22 23 23 24 28 30
3 4 2 8 7 7 6 3 5 4 2 4 2 5 8 18 19 32 16 26 31 35 33 26 18 11 8 10 13 17 20 21 18 18 17 17 17 20 23 26 25 25 26 29
5 2 3 6 6 3 4 6 9 7 3 4 5 6 5 4 9 12 24 30 34 30 26 21 15 10 7 9 13 16 18 18 16 18 20 19 16 19 23 21 24 27 26 28
5 2 1 5 8 10 5 5 8 7 10 9 15 17 4 5 5 5 1 7 27 28 20 15 11 6 6 10 13 14 16 16 18 19 20 19 19 19 21 22 22 23 25 29
2 2 1 5 8 9 13 12 6 9 7 6 8 6 8 18 9 2 10 20 25 24 18 12 7 4 7 10 12 13 15 17 17 18 20 20 20 21 19 21 21 20 19 24
3 3 2 3 6 8 8 7 8 3 5 9 7 9 5 8 11 23 31 21 28 26 18 9 4 5 7 9 11 16 17 16 17 17 18 19 20 20 22 20 25 18 18 19
2 2 1 2 4 5 7 8 10 8 3 7 5 3 5 14 7 21 25 24 25 23 15 8 3 3 7 11 20 18 17 17 13 13 13 15 20 26 18 21 25 24 14 16
6 3 2 3 3 9 12 4 4 5 3 4 4 2 21 26 30 22 26 27 24 17 13 8 4 6 12 17 17 16 13 11 15 12 12 15 20 22 20 23 29 20 14 12
7 6 5 2 3 3 4 5 6 1 3 11 9 7 16 14 3 3 27 25 18 15 11 8 8 12 17 15 10 8 11 16 18 17 14 16 17 20 18 28 31 19 12 12
3 3 9 5 4 4 3 4 4 3 3 8 5 5 19 7 18 12 17 20 16 12 11 10 10 17 14 9 6 10 13 15 15 15 17 19 16 15 18 25 28 29 22 6
5 0 2 2 3 7 9 6 2 3 11 7 6 13 21 23 24 29 19 16 17 17 16 11 15 14 11 9 7 11 13 13 13 13 16 17 17 15 17 21 23 27 30 26
4 4 5 6 5 5 9 13 8 13 12 13 20 22 30 32 30 24 14 20 17 16 15 10 13 12 11 9 10 11 13 14 14 11 15 15 16 16 16 19 20 22 28 30
1 10 3 4 4 9 9 10 13 17 17 20 26 30 32 33 27 28 17 18 15 17 13 11 11 9 8 7 9 12 12 14 13 13 13 14 16 13 17 18 20 18 22 27
5 5 1 2 5 10 14 14 15 21 20 22 20 21 24 28 27 25 21 16 15 15 13 13 9 7 5 5 7 11 13 15 12 9 11 14 16 15 17 18 20 20 18 22
2 3 4 2 2 5 10 10 11 12 15 21 27 26 23 24 20 23 24 19 18 18 15 12 9 6 3 4 4 8 13 15 20 10 11 13 15 15 15 16 16 19 14 18
Wind_Direction
241 196 229 234 242 243 268 275 273 284 231 171 193 191 213 236 172 178 185 191 197 197 196 196 197 198 197 202 208 219 221 240 264 275 280 289 276 272 277 284 292 289 288 294
278 232 231 235 246 245 260 266 286 303 342 134 188 209 223 204 184 188 197 201 203 201 198 197 199 196 198 202 209 203 218 238 247 258 266 277 286 286 288 293 292 295 299 305
217 250 236 234 254 285 257 263 304 292 313 21 126 244 251 280 252 200 200 204 206 202 200 201 198 198 200 193 187 194 220 231 237 244 262 281 279 282 294 304 309 311 313 312
238 259 262 266 273 318 326 295 346 311 300 215 113 260 264 248 256 241 202 202 206 206 204 205 204 195 186 181 193 202 210 218 233 254 289 305 315 318 318 317 317 317 315 316
247 262 273 269 182 288 249 343 354 2 9 50 328 72 277 329 294 270 218 197 201 203 204 205 190 173 177 182 183 181 190 232 293 305 314 320 321 321 322 322 319 317 316 312
262 285 280 250 195 227 252 80 21 2 43 7 293 345 302 281 288 335 218 177 191 202 162 159 159 165 154 145 139 145 281 326 313 321 326 327 328 327 324 321 320 318 318 319
292 277 271 237 326 320 254 78 12 346 345 233 223 281 242 265 87 54 77 81 90 111 128 134 130 120 110 106 111 108 85 317 323 324 329 332 328 325 323 322 320 321 328 333
213 281 231 212 175 203 244 138 139 232 241 256 211 251 314 106 64 53 68 97 94 121 114 116 123 124 124 127 127 126 355 333 328 325 328 328 325 325 323 322 328 334 336 334
284 272 319 312 157 156 264 193 200 190 278 314 246 299 12 21 42 79 70 104 100 108 115 116 116 116 116 123 122 359 358 339 330 330 330 328 328 327 331 339 344 345 344 342
233 260 284 314 132 175 171 210 25 355 180 248 287 325 254 1 351 1 93 116 111 114 116 115 113 107 101 101 83 10 340 335 333 331 331 333 336 345 354 357 355 350 348 345
200 161 283 357 259 169 37 298 273 144 139 190 190 266 174 18 340 330 336 163 128 126 124 122 118 122 122 88 16 348 331 334 337 336 339 344 360 11 9 8 4 360 360 352
193 175 202 233 268 102 80 121 71 88 336 355 195 268 30 358 4 168 338 108 114 121 119 122 119 121 109 52 3 349 343 343 344 345 352 12 21 24 21 15 9 6 5 2
331 335 64 338 340 19 65 100 86 113 91 77 109 256 37 17 349 334 110 137 125 116 120 119 119 107 63 7 351 345 343 345 351 3 15 29 35 29 20 19 12 6 6 14
93 102 108 191 244 147 208 179 138 111 87 279 229 261 317 89 316 325 334 108 112 118 118 112 101 79 38 359 347 346 347 360 15 21 24 28 22 19 20 15 7 4 11 14
104 154 343 303 306 314 298 212 172 163 200 204 252 245 124 76 16 25 88 12 109 116 116 108 94 55 6 354 353 1 15 23 34 35 32 22 16 18 14 7 2 6 11 14
108 181 295 303 305 309 305 308 281 191 209 227 248 264 158 163 102 50 259 200 131 116 119 114 89 45 1 357 11 27 40 49 49 39 28 18 16 13 7 354 355 354 359 9
110 105 48 269 315 321 292 274 281 186 178 211 215 236 207 187 172 181 196 233 133 126 131 119 87 17 1 19 30 41 50 46 39 28 20 13 7 1 354 1 2 353 355 3
51 75 5 267 334 273 245 262 284 277 237 97 81 70 54 91 105 107 131 130 129 132 127 133 98 34 38 48 53 48 44 32 24 24 12 11 359 357 5 4 354 353 357 3
184 178 230 185 229 289 310 12 41 41 11 83 114 354 127 107 93 90 138 149 144 140 140 129 105 80 78 65 52 44 42 9 12 9 19 16 5 14 13 3 354 357 4 5
204 174 162 217 233 249 190 87 65 38 299 16 28 12 135 136 59 175 142 142 141 138 113 114 111 97 81 72 60 21 16 22 39 36 24 13 7 11 8 8 11 9 354 17
215 216 208 213 219 270 64 98 142 162 246 350 40 144 162 112 111 117 134 138 139 119 129 131 113 106 92 87 31 20 26 37 37 29 24 16 10 16 2 8 19 24 24 13
164 155 292 252 236 260 39 76 103 166 60 45 358 124 122 129 149 165 166 144 135 133 133 126 114 108 101 80 39 24 25 32 30 29 23 19 15 7 359 5 15 22 31 35
215 154 182 167 199 180 99 119 120 110 102 95 107 121 123 122 123 128 139 149 134 132 133 116 113 99 82 53 29 23 24 30 26 31 31 33 18 16 8 0 6 14 26 31
321 64 351 91 93 87 116 115 110 112 114 129 132 138 139 129 131 123 164 149 141 136 141 135 119 96 82 48 18 16 27 29 25 31 35 33 20 6 15 7 5 6 21 27
332 344 35 320 71 119 81 128 123 117 121 129 141 150 142 138 144 144 160 158 147 151 145 144 129 102 90 33 17 8 34 22 22 49 36 32 25 15 13 13 10 9 13 26
162 48 271 283 331 36 109 100 137 153 158 162 152 152 151 148 144 149 158 158 151 157 154 147 134 124 76 28 13 34 38 30 29 35 42 28 25 18 15 11 15 12 15 29